Lid_Strength_Index
10 10 10 10 10 9 9 9 8 8 7 7 7 6 6 5 5 4 2 2 0 -2 -2 -2 -2 -2 -1 -1 -1 -1 -1 -1 -1 -1 -1 -1 -1 -2 -2 -2 -2 -2 -2
10 11 11 11 10 10 10 9 9 8 8 7 7 6 6 5 5 4 3 2 1 -0 -2 -2 -2 -2 -2 -1 -1 -1 -1 -1 -1 -1 -1 -1 -1 -1 -2 -2 -2 -2 -2
11 11 11 11 11 10 10 10 9 9 9 8 8 7 6 5 4 4 3 2 1 0 -1 -2 -2 -2 -2 -2 -2 -1 -1 -1 -1 -1 -1 -1 -1 -1 -1 -2 -2 -2 -2
11 12 12 12 11 11 11 11 11 11 10 9 9 7 6 5 4 3 3 2 1 0 -1 -2 -2 -2 -2 -1 -1 -1 -0 0 -1 -1 -1 -1 -1 -1 -1 -2 -1 -2 -1
12 12 12 12 11 11 11 11 11 11 11 9 8 7 6 5 4 3 3 3 1 -0 -1 -1 -1 -1 -1 -1 -1 -1 0 -1 -0 0 -1 -1 -1 -1 -1 -2 -2 -2 -1
12 12 12 12 12 12 12 11 12 10 10 8 7 7 5 5 4 3 2 1 0 -1 -1 -1 -1 -1 -1 -1 -1 -1 -0 1 1 -1 -1 -1 -1 -1 -1 -2 -2 -2 -1
12 13 12 13 12 12 12 12 11 10 9 7 7 7 7 5 3 2 1 1 -0 1 -0 -0 0 -0 -0 -1 -1 -1 -1 1 1 0 -1 -1 -1 -1 -1 -2 -2 -2 -2
13 13 13 13 12 13 12 11 10 9 7 7 8 8 9 7 3 4 3 2 2 1 1 1 0 -0 -0 -1 -1 -1 -1 0 1 0 -1 -1 -1 -1 -1 -2 -2 -2 -2
13 13 13 13 13 12 12 10 9 8 9 8 7 9 10 10 8 5 5 3 3 2 2 2 1 1 1 -0 -0 -0 -0 1 1 0 -1 -0 -1 -1 -1 -2 -2 -2 -2
13 13 13 13 13 11 10 9 8 8 8 9 8 7 7 8 11 10 6 5 4 3 5 3 3 2 0 0 -0 0 -0 0 -0 -1 -1 -1 -1 -1 -1 -2 -2 -2 -1
14 13 13 13 12 10 9 8 8 8 8 9 9 9 9 8 8 9 10 7 5 4 5 4 4 2 1 1 0 0 -0 -0 -1 -0 -1 -1 -1 -1 -1 -2 -2 -1 -1
14 14 13 12 11 10 9 8 8 8 8 9 8 9 9 9 10 10 9 8 8 7 5 5 5 3 2 0 1 2 1 0 -0 -1 -1 -1 -1 -1 -1 -1 -1 -1 -1
15 15 13 12 11 10 9 8 8 8 8 9 9 9 8 8 8 9 9 9 9 7 7 5 5 3 2 2 2 3 2 1 -0 -1 -1 -1 -1 -1 -1 -1 -1 -1 -1
15 14 13 11 10 9 9 9 9 8 8 8 9 9 9 8 8 8 9 9 9 9 8 7 5 3 4 3 3 4 2 2 1 0 -0 -0 -0 0 -0 -1 -1 -1 -1
15 14 12 11 10 10 9 9 9 9 9 8 8 8 9 8 8 7 7 7 9 11 10 8 7 5 5 5 4 4 3 3 2 1 1 1 1 1 1 1 -0 0 0
15 14 12 11 10 10 10 10 10 9 10 9 8 8 9 9 7 8 8 8 8 10 11 7 7 6 6 6 5 4 5 5 4 2 3 3 3 2 2 2 1 1 1
15 13 12 11 11 11 11 11 11 11 10 10 9 9 9 9 9 8 8 8 8 9 11 8 7 6 6 5 5 4 5 5 5 4 4 3 3 3 3 3 3 2 1
14 13 12 11 12 12 11 11 12 11 11 11 10 10 10 9 9 8 9 9 9 9 11 11 8 7 7 6 5 5 6 6 6 5 3 4 3 3 3 3 3 2 2
14 12 12 12 12 12 11 11 11 11 11 11 11 11 10 10 10 9 9 10 9 9 10 10 9 7 7 7 7 6 7 7 7 7 6 4 3 4 4 4 4 3 3
14 13 13 12 12 11 11 11 11 11 11 11 10 10 9 9 9 9 9 9 9 9 9 10 10 9 8 8 6 7 8 9 9 8 7 6 6 6 5 5 4 4 4
13 13 13 12 12 11 11 10 10 9 10 10 9 9 9 8 8 8 8 8 9 9 9 10 10 9 9 8 8 7 9 9 10 10 9 10 8 8 7 6 6 5 5
13 13 13 13 12 11 9 8 8 9 9 10 10 9 9 8 8 7 6 6 6 8 8 9 10 10 10 8 7 7 9 9 11 8 10 10 9 9 7 6 5 5 4
14 14 13 12 12 12 9 8 7 8 9 9 9 10 9 8 8 7 7 7 6 6 6 7 9 9 9 8 7 8 9 9 10 10 10 12 11 10 8 7 5 4 4
15 14 13 12 12 11 9 8 8 8 9 9 9 9 9 9 9 8 8 8 8 8 7 7 7 8 7 8 7 8 9 11 10 11 10 12 11 11 10 7 5 4 4
14 13 12 11 11 11 9 8 8 9 9 10 9 9 9 9 8 7 8 8 8 8 7 6 7 7 7 7 6 8 10 10 12 12 11 12 12 11 11 11 7 5 5
13 11 11 11 10 11 9 8 8 8 9 9 8 8 7 7 6 7 8 8 9 9 8 8 8 7 7 7 6 7 9 10 11 11 11 12 12 12 13 11 11 8 7